Tulsa Jones, OK

5:36 PM CDT on May 25, 2017 (GMT -0500)
Jones Jr.

Weather History for KRVS - December, 2012

Change the Weather History Date:

Monday, December 10, 2012

  Actual Average (KTUL) Record (KTUL)
Temperature  
Mean Temperature 28 °F -  
Max Temperature 37 °F 50 °F 74 °F (1996)
Min Temperature 18 °F 30 °F 3 °F (1919)
Degree Days  
Heating Degree Days 38    
Moisture  
Dew Point 10 °F    
Average Humidity 50    
Maximum Humidity 71    
Minimum Humidity 31    
Precipitation  
Precipitation 0.00 in - - ()
Sea Level Pressure  
Sea Level Pressure 30.16 in    
Wind  
Wind Speed 6 mph (NW)    
Max Wind Speed 12 mph    
Max Gust Speed 20 mph    
Visibility 10 miles    
Events      
Averages and records for this station are not official NWS values.
T = Trace of Precipitation, MM = Missing Value Source: NWS Daily Summary

Daily Weather History Graph

Daily Weather History Graph

Search for Another Location

Airport or City:

Trip Planner

Search our weather history database for the weather conditions in past years. The results will help you decide how hot, cold, wet, or windy it might be!

Date:

Astronomy

Dec. 10, 2012 Rise Set
Actual Time 7:24 AM CST 5:09 PM CST
Civil Twilight 6:55 AM CST 5:38 PM CST
Nautical Twilight 6:23 AM CST 6:10 PM CST
Astronomical Twilight 5:52 AM CST 6:41 PM CST
Moon 4:12 AM CST (12/10) 2:57 PM CST (12/10)
Length of Visible Light 10h 42m
Length of Day
9h 45m
Waning Crescent, 10% of the Moon is Illuminated
Dec 10
Waning Crescent
Dec 13
New
Dec 19
First Quarter
Dec 28
Full
Jan 4
Last Quarter

Hourly Weather History & Observations

Time (CST) Temp. Windchill Dew Point Humidity Pressure Visibility Wind Dir Wind Speed Gust Speed Precip Events Conditions
12:53 AM 30.0 °F 23.2 °F 10.9 °F 45% 30.14 in 10.0 mi NNW 6.9 mph - N/A   Clear
1:53 AM 30.0 °F 23.2 °F 12.0 °F 47% 30.15 in 10.0 mi NNW 6.9 mph 18.4 mph N/A   Mostly Cloudy
2:53 AM 28.9 °F 22.8 °F 10.9 °F 47% 30.15 in 10.0 mi Variable 5.8 mph - N/A   Overcast
3:53 AM 28.0 °F 20.0 °F 10.9 °F 49% 30.14 in 10.0 mi NNW 8.1 mph - N/A   Overcast
4:53 AM 27.0 °F 18.0 °F 10.9 °F 51% 30.15 in 10.0 mi NNW 9.2 mph - N/A   Clear
5:53 AM 26.1 °F 15.6 °F 10.9 °F 53% 30.18 in 10.0 mi NNW 11.5 mph 19.6 mph N/A   Clear
6:53 AM 24.1 °F 15.2 °F 10.0 °F 55% 30.20 in 10.0 mi NNW 8.1 mph - N/A   Clear
7:53 AM 23.0 °F 17.0 °F 10.0 °F 58% 30.21 in 10.0 mi NNW 4.6 mph - N/A   Clear
8:53 AM 24.1 °F 15.2 °F 9.0 °F 53% 30.22 in 10.0 mi NNW 8.1 mph - N/A   Clear
9:53 AM 26.1 °F 18.4 °F 9.0 °F 49% 30.22 in 10.0 mi Variable 6.9 mph - N/A   Clear
11:53 AM 30.0 °F 21.7 °F 10.0 °F 43% 30.19 in 10.0 mi NW 9.2 mph - N/A   Clear
12:53 PM 33.1 °F 26.1 °F 10.9 °F 40% 30.16 in 10.0 mi NNW 8.1 mph - N/A   Clear
1:53 PM 36.0 °F 31.1 °F 12.0 °F 37% 30.13 in 10.0 mi Variable 5.8 mph - N/A   Clear
2:53 PM 37.0 °F 32.4 °F 10.0 °F 33% 30.11 in 10.0 mi Variable 5.8 mph - N/A   Clear
3:53 PM 37.0 °F 34.5 °F 9.0 °F 31% 30.11 in 10.0 mi Variable 3.5 mph - N/A   Clear
4:53 PM 34.0 °F 31.0 °F 8.1 °F 34% 30.12 in 10.0 mi West 3.5 mph - N/A   Clear
5:53 PM 28.9 °F - 10.0 °F 45% 30.13 in 10.0 mi Calm Calm - N/A   Clear
6:53 PM 26.1 °F - 10.0 °F 51% 30.13 in 10.0 mi Calm Calm - N/A   Clear
7:53 PM 23.0 °F - 10.0 °F 58% 30.13 in 10.0 mi Calm Calm - N/A   Clear
8:53 PM 21.9 °F - 9.0 °F 58% 30.14 in 10.0 mi Calm Calm - N/A   Clear
9:53 PM 19.9 °F - 10.9 °F 68% 30.16 in 10.0 mi Calm Calm - N/A   Clear
10:53 PM 18.0 °F 12.7 °F 10.0 °F 71% 30.16 in 10.0 mi SW 3.5 mph - N/A   Clear
11:53 PM 18.0 °F - 10.0 °F 71% 30.16 in 10.0 mi Calm Calm - N/A   Clear